Regional Weather Roundup
Issued by NWS State College, PA

Home | Current Version | Previous Version | Graphics & Text | Print | Product List | Glossary On
Versions: 1 2 3 4 5 6 7 8 9 10 11 12 13 14 15 16 17 18 19 20 21 22 23 24 25 26 27 28 29 30 31 32 33 34 35 36 37 38 39 40 41 42 43 44 45 46 47 48 49 50
000
ASUS41 KCTP 191010
RWRCTP

REGIONAL WEATHER ROUNDUP
NATIONAL WEATHER SERVICE STATE COLLEGE PA
500 AM EST SUN FEB 19 2017

Note: "fair" indicates few or no clouds below 12,000 feet with no
significant weather and/or obstructions to visibility.

* = STATION THAT DOES NOT REPORT PRECIPITATION /E.G. RAIN...SNOW...ETC/
    THUNDER OR FOG.

PAZ002>004-007>009-013>016-020>023-029>032-191100-
WESTERN PENNSYLVANIA

CITY           SKY/WX    TMP DP  RH WIND       PRES   REMARKS
ERIE           CLEAR     50  39  66 W10       29.83R
MEADVILLE      CLEAR     44  37  76 SW6       29.83S
FRANKLIN*      CLEAR     43  36  75 SW10      29.85S
NEW CASTLE     FAIR      45  41  86 SW7       29.87R
BEAVER COUNTY  NOT AVBL
BUTLER*        CLEAR     45  39  81 SW6       29.89R
PITTSBURGH INT CLEAR     47  43  86 W9        29.88R
PITTSBURGH     CLEAR     46  39  76 SW7       29.88R
INDIANA*       MOCLDY    45  41  87 W6        29.90R
LATROBE        CLEAR     46  45  93 S12       29.90R
WASHINGTON CO* PTCLDY    46  39  76 SW8       29.92S
$$

PAZ004>006-010>012-017>019-024>028-033>037-041-042-045-046-049>053-191100-
CENTRAL PENNSYLVANIA

CITY           SKY/WX    TMP DP  RH WIND       PRES   REMARKS
BRADFORD       CLEAR     44  38  79 W6        29.81R
DUBOIS         CLEAR     42  37  82 SW13      29.83R
CLEARFIELD       N/A    N/A N/A N/A MISG      29.84R
JOHNSTOWN      MOCLDY    45  41  86 W12       29.85R
ALTOONA        PTCLDY    49  40  71 W10       29.85R
STATE COLLEGE  PTCLDY    46  39  77 SW10      29.83R
WILLIAMSPORT   CLEAR     32  29  88 CALM      29.80R
SELINSGROVE    PTCLDY    36  33  89 CALM      29.81R
FT INDIANTOWN  CLOUDY    58  37  45 W10G17    29.78R
CAPITAL CITY   CLOUDY    57  34  41 W8        29.80R
HARRISBURG     CLOUDY    54  36  50 NW9       29.79R
YORK           CLOUDY    56  38  50 W5        29.80R
$$

PAZ038>040-043-044-047-048-054-055-060>062-067>071-191100-
EASTERN PENNSYLVANIA

CITY           SKY/WX    TMP DP  RH WIND       PRES   REMARKS
SCRANTON       CLOUDY    49  34  56 SW5       29.76R
MOUNT POCONO   CLOUDY    46  35  65 W12       29.73R
ALLENTOWN      CLOUDY    50  32  50 SW6       29.76R
QUAKERTOWN*    CLOUDY    55  36  47 W5        29.77R
READING        CLOUDY    55  36  48 CALM      29.77R
LANCASTER      CLOUDY    49  36  61 W5        29.78R
COATESVILLE    CLOUDY    54  34  47 W5        29.79R
POTTSTOWN      CLOUDY    55  33  43 CALM      29.78R
BLUE BELL      CLOUDY    52  34  50 CALM      29.76R
DOYLESTOWN     CLOUDY    57  33  40 W3        29.75R
WILLOW GROVE   NOT AVBL
NORTH PHILA    CLOUDY    56  34  43 W6        29.77S
PHILADELPHIA   CLOUDY    52  35  52 W8        29.77S
$$




USA.gov is the U.S. government's official web portal to all federal, state and local government web resources and services.